TimeMST,TemperatureF,Dew PointF,Humidity,Sea Level PressureIn,VisibilityMPH,Wind Direction,Wind SpeedMPH,Gust SpeedMPH,PrecipitationIn,Events,Conditions,WindDirDegrees,DateUTC
1:56 AM,32.0,23.0,69,29.96,10.0,WSW,16.1,-,N/A,,Mostly Cloudy,250,2013-02-21 08:56:00
2:56 AM,30.0,23.0,75,29.97,10.0,WSW,10.4,-,N/A,,Clear,250,2013-02-21 09:56:00
3:56 AM,28.9,21.9,75,29.97,10.0,WSW,10.4,-,N/A,,Clear,250,2013-02-21 10:56:00
4:56 AM,28.9,21.9,75,29.97,10.0,West,13.8,-,N/A,,Clear,260,2013-02-21 11:56:00
5:56 AM,27.0,21.0,78,30.00,10.0,SSW,5.8,-,N/A,,Clear,210,2013-02-21 12:56:00
6:55 AM,24.8,19.4,80,30.03,10.0,WNW,5.8,-,N/A,,Partly Cloudy,300,2013-02-21 13:55:00
7:55 AM,28.4,23.0,80,30.04,10.0,South,6.9,-,N/A,,Partly Cloudy,190,2013-02-21 14:55:00
8:55 AM,33.8,24.8,70,30.04,10.0,SSE,8.1,-,N/A,,Partly Cloudy,160,2013-02-21 15:55:00
9:55 AM,37.4,26.6,65,30.02,10.0,ESE,3.5,-,N/A,,Partly Cloudy,110,2013-02-21 16:55:00
10:55 AM,39.2,26.6,61,30.02,10.0,Calm,Calm,-,N/A,,Partly Cloudy,0,2013-02-21 17:55:00
11:55 AM,41.0,26.6,57,30.00,10.0,Calm,Calm,-,N/A,,Partly Cloudy,0,2013-02-21 18:55:00
12:55 PM,42.8,26.6,53,29.99,10.0,Calm,Calm,-,N/A,,Mostly Cloudy,0,2013-02-21 19:55:00
1:55 PM,44.6,26.6,49,29.95,10.0,WNW,8.1,-,N/A,,Mostly Cloudy,300,2013-02-21 20:55:00
2:55 PM,44.6,24.8,46,29.95,10.0,Calm,Calm,-,N/A,,Mostly Cloudy,0,2013-02-21 21:55:00
3:55 PM,44.6,24.8,46,29.93,10.0,Variable,3.5,-,N/A,,Mostly Cloudy,0,2013-02-21 22:55:00
4:55 PM,44.6,24.8,46,29.92,10.0,Variable,3.5,-,N/A,,Mostly Cloudy,0,2013-02-21 23:55:00
5:55 PM,44.6,24.8,46,29.93,10.0,Variable,3.5,-,N/A,,Mostly Cloudy,0,2013-02-22 00:55:00
6:55 PM,41.0,26.6,57,29.96,10.0,Variable,3.5,-,N/A,,Mostly Cloudy,0,2013-02-22 01:55:00
7:55 PM,39.2,28.4,65,29.97,10.0,Calm,Calm,-,N/A,,Mostly Cloudy,0,2013-02-22 02:55:00
8:55 PM,37.4,28.4,70,29.98,10.0,Variable,4.6,-,N/A,,Scattered Clouds,0,2013-02-22 03:55:00
9:55 PM,37.4,28.4,70,29.99,10.0,Variable,4.6,-,N/A,,Scattered Clouds,0,2013-02-22 04:55:00
10:55 PM,35.6,28.4,75,29.99,10.0,Calm,Calm,-,N/A,,Scattered Clouds,0,2013-02-22 05:55:00
11:55 PM,35.6,28.4,75,29.98,10.0,Calm,Calm,-,N/A,,Scattered Clouds,0,2013-02-22 06:55:00